Weather in Zenkovka

Russia / Amur Oblast     49°54′40″N   128°22′29″E
temp.,
°C
wind,
m/s
gust,
m/s
humid.,
%
clouds,
%
prec.,
mm/h
press.,
hPa
HPBL,
m
30 june, thu
thu3000:00+19e22904 0.0 100618
03:00+17ne22910 0.0 100611
06:00+18ene23935 0.7 1008105
09:00+23ese33807 0.7 1009536
12:00+26se45698 0.0 10091084
15:00+27ese45624 0.1 10081443
18:00+25se357941 1.6 1009223
21:00+20s339090 2.2 100947
1 july, fri
fri100:00+19se22839 0.0 101014
03:00+18sse11875 0.0 101111
06:00+19se22885 0.0 101159
09:00+24sse33745 0.0 1011449
12:00+26sse44640 0.0 10111066
15:00+28sse34600 0.0 10091547
18:00+27ese337177 0.0 1008540
21:00+22ese338484 0.4 100827
2 july, sat
sat200:00+20sse359016 0.0 100781
03:00+19sse3391100 0.0 100856
06:00+20sse35932 0.0 1008152
09:00+24s347677 0.0 1007488
12:00+27s4469100 0.9 1006803
15:00+28s345994 1.3 10051469
18:00+27se46755 0.4 1003235
21:00+22se46914 1.2 100485
3 july, sun
sun300:00+20sse36949 0.3 1004107
03:00+19s33964 0.3 100356
06:00+20sse349611 0.0 1004144
09:00+24s34765 0.0 1004495
12:00+27sse34669 0.0 10031051
15:00+28se226081 0.1 10021498
18:00+27se227225 0.0 1001454
21:00+23se22870 0.1 100117
4 july, mon
mon400:00+21sse12900 0.0 100211
03:00+20se11920 0.0 100111
06:00+21ese22923 0.0 100284
09:00+25sse3378100 0.0 1001497
12:00+28sse2267100 0.0 10011000
15:00+30sse225973 0.0 10001265
18:00+29se337020 0.0 999425
21:00+23se348995 1.3 100060